Flag for Austria Weather past 2 weeks in Bruck an der Mur, Styria, Austria

Now
55 °F

Sprinkles. Broken clouds.


Feels Like: 55 °F
Forecast: 54 / 69 °F
Wind: 3 mph from North

Location: Zeltweg

Current Time: May 30, 2015 at 9:11:48 PM

Latest Report: May 30, 2015 at 8:50 PM


Visibility: 12 mi

Pressure: 30.07 "Hg

Humidity: 100%

Dew point: 55 °F

Location of Bruck an der MurLocation

Historic Weather in Bruck an der Mur — Graph

°F

Bruck an der Mur temperature yesterday

Maximum temperature yesterday: 73 °F (at 1:50 PM)
Minimum temperature yesterday: 39 °F (at 5:50 AM)
Average temperature yesterday: 62 °F

Past Weeks' High & Low Weather Summary

 TemperatureHumidityPressure
High73 °F (May 29, 1:50 PM)100% (May 15, 10:50 PM)30.24 "Hg (May 15, 10:50 PM)
Low37 °F (May 28, 5:50 AM)22% (May 29, 2:20 PM)29.77 "Hg (May 19, 5:20 PM)
Average56 °F66%30.00 "Hg
* Reported May 15 7:50 PM — May 30 7:50 PM, Bruck an der Mur, Weather by CustomWeather, © 2015

Note: Actual official high and low records may vary slightly from our data, if they occured in-between our weather recording intervals... More about our weather records

Advertising

Bruck an der Mur weather history for previous 24 hours

 ConditionsComfort  
Time TempWeatherWind HumidityBarometerVisibility
7:50 PM
Sat, May 30
57 °FSprinkles. Broken clouds.2 mph88%30.07 "Hg12 mi
7:20 PM57 °FBroken clouds.1 mph88%30.04 "Hg16 mi
6:50 PM55 °FBroken clouds.3 mph94%30.04 "Hg9 mi
6:20 PM55 °FSprinkles. Broken clouds.2 mph94%30.04 "Hg7 mi
5:50 PM55 °FRain showers. Partly sunny.12 mph88%30.04 "Hg3 mi
5:20 PM61 °FThunderstorms. Broken clouds.3 mph72%29.98 "Hg19 mi
4:50 PM61 °FSprinkles. Partly sunny.3 mph72%29.98 "Hg19 mi
4:20 PM63 °FSprinkles. Partly sunny.2 mph64%29.98 "Hg19 mi
3:50 PM64 °FBroken clouds.5 mph56%29.98 "Hg19 mi
3:20 PM63 °FBroken clouds.3 mph68%29.98 "Hg19 mi
2:50 PM63 °FSprinkles. Broken clouds.9 mph59%29.98 "Hg19 mi
2:20 PM66 °FBroken clouds.7 mph49%29.98 "Hg19 mi
1:50 PM68 °FBroken clouds.6 mph46%29.98 "Hg19 mi
1:20 PM70 °FThunderstorms. Partly sunny.1 mph40%29.98 "Hg19 mi
12:50 PM68 °FPartly sunny.1 mph43%29.98 "Hg19 mi
12:20 PM66 °FPartly sunny.2 mph49%29.98 "Hg19 mi
11:50 AM66 °FScattered clouds.3 mph52%29.98 "Hg19 mi
11:20 AM63 °FPartly sunny.2 mph59%29.98 "Hg25 mi
10:50 AM61 °FPartly sunny.2 mph63%30.01 "Hg25 mi
10:20 AM59 °FPartly sunny.2 mph63%30.01 "Hg25 mi
9:50 AM57 °FPartly sunny.2 mph67%30.01 "Hg25 mi
9:20 AM57 °FBroken clouds.2 mph67%29.98 "Hg25 mi
8:50 AM55 °FPartly sunny.1 mph72%29.98 "Hg25 mi
8:20 AM54 °FBroken clouds.1 mph72%29.98 "Hg25 mi
7:50 AM52 °FPartly sunny.1 mph77%29.98 "Hg25 mi
7:20 AM54 °FPartly sunny.1 mph72%29.98 "Hg25 mi
6:50 AM48 °FPartly sunny.2 mph100%29.98 "Hg25 mi
5:50 AM46 °FPassing clouds.3 mph87%29.98 "Hg19 mi
4:50 AM46 °FPassing clouds.1 mph93%29.95 "Hg12 mi
10:50 PM
Fri, May 29
54 °FPassing clouds.5 mph77%29.92 "Hg9 mi
9:50 PM55 °FPassing clouds.5 mph72%29.92 "Hg12 mi
Weather by CustomWeather, © 2015

See weather overviewHow to use our weather pages